Weather History for Palacios, TX

Change the Weather History Date:

Sunday, May 19, 2013

  Actual Average Record
Temperature  
Mean Temperature 81 °F -  
Max Temperature 86 °F 83 °F 89 °F (2008)
Min Temperature 78 °F 69 °F 55 °F (2002)
Cooling Degree Days 16    
Growing Degree Days 31 (Base 50)    
Moisture  
Dew Point 72 °F    
Average Humidity 75    
Maximum Humidity 83    
Minimum Humidity 66    
Precipitation  
Precipitation 0.00 in - - ()
Sea Level Pressure  
Sea Level Pressure 29.86 in    
Wind  
Wind Speed 19 mph (SSE)    
Max Wind Speed 23 mph    
Max Gust Speed 31 mph    
Visibility 9 miles    
Events      
Averages and records for this station are not official NWS values.
T = Trace of Precipitation, MM = Missing Value Source: NWS Daily Summary

Daily Weather History Graph

Daily Weather History Graph

Search for Another Location

Airport:

Trip Planner

Search our weather history database for the weather conditions in past years. The results will help you decide how hot, cold, wet, or windy it might be!

Date:

Astronomy

May. 19, 2013 Rise Set
Actual Time 6:31 AM CDT 8:11 PM CDT
Civil Twilight 6:05 AM CDT 8:37 PM CDT
Nautical Twilight 5:34 AM CDT 9:08 PM CDT
Astronomical Twilight 5:01 AM CDT 9:41 PM CDT
Moon 2:43 PM CDT (5/19) 2:26 AM CDT (5/19)
Length of Visible Light 14h 31m
Length of Day
13h 39m
Waxing Gibbous, 65% of the Moon is Illuminated
May 19
Waxing Gibbous
May 24
Full
May 31
Last Quarter
Jun 8
New
Jun 16
First Quarter

Hourly Weather History & Observations

Time (CDT) Temp. Heat Index Dew Point Humidity Pressure Visibility Wind Dir Wind Speed Gust Speed Precip Events Conditions
12:25 AM 78.8 °F - 71.6 °F 78% 29.91 in 10.0 mi SSE 23.0 mph 28.8 mph N/A   Overcast
12:53 AM 78.1 °F - 72.0 °F 81% 29.90 in 10.0 mi SSE 19.6 mph 27.6 mph N/A   Mostly Cloudy
1:53 AM 78.1 °F - 71.1 °F 79% 29.88 in 10.0 mi SSE 20.7 mph 31.1 mph N/A   Overcast
2:53 AM 78.1 °F - 72.0 °F 81% 29.86 in 9.0 mi SSE 19.6 mph 28.8 mph N/A   Overcast
3:53 AM 79.0 °F - 72.0 °F 79% 29.86 in 9.0 mi South 17.3 mph 27.6 mph N/A   Overcast
4:46 AM 78.8 °F - 71.6 °F 78% 29.85 in 7.0 mi SSE 13.8 mph 23.0 mph N/A   Overcast
4:53 AM 78.1 °F - 72.0 °F 81% 29.85 in 7.0 mi South 16.1 mph 27.6 mph N/A   Overcast
5:29 AM 78.8 °F - 71.6 °F 78% 29.85 in 7.0 mi South 15.0 mph 23.0 mph N/A   Overcast
5:38 AM 78.8 °F - 73.4 °F 83% 29.85 in 7.0 mi SSE 15.0 mph - N/A   Overcast
5:53 AM 78.1 °F - 72.0 °F 81% 29.86 in 7.0 mi South 19.6 mph 24.2 mph N/A   Overcast
6:39 AM 78.8 °F - 71.6 °F 78% 29.86 in 8.0 mi SSE 16.1 mph - N/A   Overcast
6:53 AM 78.8 °F - 71.6 °F 78% 29.86 in 7.0 mi SSE 17.3 mph 21.9 mph N/A   Overcast
7:02 AM 78.8 °F - 71.6 °F 78% 29.87 in 8.0 mi SSE 17.3 mph 24.2 mph N/A   Overcast
7:53 AM 78.1 °F - 72.0 °F 81% 29.88 in 8.0 mi SSE 12.7 mph 20.7 mph N/A   Mostly Cloudy
9:32 AM 80.6 °F 84.6 °F 71.6 °F 74% 29.90 in 10.0 mi SSE 16.1 mph 26.5 mph N/A   Mostly Cloudy
9:48 AM 80.6 °F 84.6 °F 71.6 °F 74% 29.90 in 10.0 mi SSE 20.7 mph 27.6 mph N/A   Scattered Clouds
9:53 AM 81.0 °F 84.9 °F 71.1 °F 72% 29.90 in 10.0 mi SSE 18.4 mph 27.6 mph N/A   Scattered Clouds
10:39 AM 82.4 °F 87.2 °F 71.6 °F 70% 29.90 in 10.0 mi South 19.6 mph 26.5 mph N/A   Mostly Cloudy
10:53 AM 82.0 °F 86.3 °F 71.1 °F 69% 29.90 in 10.0 mi SSE 20.7 mph 26.5 mph N/A   Mostly Cloudy
11:46 AM 84.2 °F 89.6 °F 71.6 °F 66% 29.90 in 10.0 mi SSE 19.6 mph 25.3 mph N/A   Scattered Clouds
11:53 AM 84.0 °F 89.6 °F 72.0 °F 67% 29.89 in 10.0 mi South 18.4 mph 27.6 mph N/A   Partly Cloudy
12:53 PM 84.0 °F 89.6 °F 72.0 °F 67% 29.87 in 10.0 mi South 20.7 mph 27.6 mph N/A   Clear
1:53 PM 84.2 °F 90.9 °F 73.4 °F 70% 29.85 in 10.0 mi SSE 18.4 mph 27.6 mph N/A   Partly Cloudy
2:53 PM 84.2 °F 90.9 °F 73.4 °F 70% 29.84 in 10.0 mi SSE 18.4 mph 27.6 mph N/A   Clear
3:29 PM 84.2 °F 89.6 °F 71.6 °F 66% 29.84 in 10.0 mi SSE 19.6 mph 25.3 mph N/A   Mostly Cloudy
3:53 PM 84.9 °F 91.4 °F 73.0 °F 67% 29.83 in 10.0 mi SSE 20.7 mph - N/A   Mostly Cloudy
4:53 PM 84.0 °F 89.6 °F 72.0 °F 67% 29.82 in 10.0 mi SSE 20.7 mph 25.3 mph N/A   Mostly Cloudy
5:53 PM 82.0 °F 86.7 °F 72.0 °F 71% 29.81 in 10.0 mi SSE 20.7 mph 27.6 mph N/A   Mostly Cloudy
6:53 PM 81.0 °F 85.2 °F 72.0 °F 74% 29.81 in 10.0 mi SSE 17.3 mph 26.5 mph N/A   Overcast
7:53 PM 80.1 °F 84.2 °F 73.0 °F 79% 29.82 in 10.0 mi SE 15.0 mph - N/A   Overcast
8:19 PM 80.6 °F 85.4 °F 73.4 °F 79% 29.83 in 9.0 mi SSE 17.3 mph - N/A   Overcast
8:53 PM 80.1 °F 84.5 °F 73.9 °F 81% 29.83 in 10.0 mi SE 16.1 mph - N/A   Overcast
9:02 PM 80.6 °F 85.4 °F 73.4 °F 79% 29.84 in 10.0 mi SSE 16.1 mph - N/A   Overcast
10:53 PM 80.6 °F 84.6 °F 71.6 °F 74% 29.86 in 10.0 mi SSE 15.0 mph - N/A   Overcast
11:53 PM 80.1 °F 84.2 °F 73.0 °F 79% 29.86 in 10.0 mi SSE 13.8 mph 21.9 mph N/A   Overcast